Ravenna, OH

4:14 AM EDT on September 24, 2017 (GMT -0400)
Ravenna

Weather History for KPOV - May, 2014

Change the Weather History Date:

Saturday, May 10, 2014

  Actual Average (KCAK) Record (KCAK)
Temperature  
Mean Temperature 58 °F -  
Max Temperature 67 °F 67 °F 91 °F (1936)
Min Temperature 49 °F 45 °F 24 °F (1966)
Degree Days  
Heating Degree Days 7    
Growing Degree Days 8 (Base 50)    
Moisture  
Dew Point 50 °F    
Average Humidity 69    
Maximum Humidity 100    
Minimum Humidity 37    
Precipitation  
Precipitation 0.09 in - - ()
Sea Level Pressure  
Sea Level Pressure 29.94 in    
Wind  
Wind Speed 4 mph (West)    
Max Wind Speed 12 mph    
Max Gust Speed 17 mph    
Visibility 10 miles    
Events      
Averages and records for this station are not official NWS values.
T = Trace of Precipitation, MM = Missing Value Source: NWS Daily Summary

Daily Weather History Graph

Daily Weather History Graph

Search for Another Location

Airport or City:

Trip Planner

Search our weather history database for the weather conditions in past years. The results will help you decide how hot, cold, wet, or windy it might be!

Date:

Astronomy

May. 10, 2014 Rise Set
Actual Time 6:11 AM EDT 8:31 PM EDT
Civil Twilight 5:40 AM EDT 9:02 PM EDT
Nautical Twilight 5:02 AM EDT 9:40 PM EDT
Astronomical Twilight 4:20 AM EDT 10:23 PM EDT
Moon 4:23 PM EDT (5/10) 3:47 AM EDT (5/10)
Length of Visible Light 15h 21m
Length of Day
14h 19m
Waxing Gibbous, 82% of the Moon is Illuminated
May 10
Waxing Gibbous
May 14
Full
May 21
Last Quarter
May 28
New
Jun 5
First Quarter

Hourly Weather History & Observations

Time (EDT) Temp. Dew Point Humidity Pressure Visibility Wind Dir Wind Speed Gust Speed Precip Events Conditions
12:16 AM 64.8 °F 59.7 °F 84% 29.89 in 10.0 mi SSW 5.8 mph - N/A   Mostly Cloudy
12:35 AM 65.3 °F 60.1 °F 83% 29.90 in 10.0 mi WSW 8.1 mph - N/A   Overcast
12:56 AM 62.8 °F 59.7 °F 90% 29.90 in 3.0 mi Calm Calm - 0.05 in   Overcast
1:16 AM - - N/A% 29.91 in 7.0 mi NNW 4.6 mph - 0.01 in   Overcast
1:36 AM 60.8 °F 61.0 °F 100% 29.90 in 10.0 mi Calm Calm - 0.03 in   Overcast
1:56 AM 60.4 °F 60.6 °F 100% 29.90 in 7.0 mi Calm Calm - 0.03 in   Scattered Clouds
2:16 AM 59.9 °F 59.9 °F 100% 29.88 in 7.0 mi Calm Calm - N/A   Scattered Clouds
2:36 AM 59.2 °F - N/A% 29.88 in 7.0 mi Calm Calm - N/A   Scattered Clouds
2:55 AM 59.9 °F - N/A% 29.88 in 10.0 mi Calm Calm - 0.01 in   Mostly Cloudy
3:16 AM 60.4 °F 60.8 °F 100% 29.89 in 10.0 mi Calm Calm - N/A   Overcast
3:36 AM 60.8 °F 61.0 °F 100% 29.89 in 10.0 mi Calm Calm - N/A   Scattered Clouds
3:55 AM 61.0 °F 61.2 °F 100% 29.89 in 10.0 mi SSW 4.6 mph - N/A   Scattered Clouds
4:16 AM - - N/A% 29.89 in 10.0 mi SSW 3.5 mph - N/A   Overcast
4:36 AM 61.9 °F 62.1 °F 100% 29.88 in 10.0 mi SW 3.5 mph - N/A   Mostly Cloudy
4:56 AM 62.1 °F 62.2 °F 100% 29.89 in 10.0 mi SSW 3.5 mph - N/A   Mostly Cloudy
5:16 AM 62.4 °F 62.6 °F 100% 29.90 in 10.0 mi SW 4.6 mph - N/A   Mostly Cloudy
5:36 AM 62.6 °F 62.8 °F 100% 29.90 in 10.0 mi SW 5.8 mph - N/A   Mostly Cloudy
5:55 AM 62.8 °F 63.0 °F 100% 29.91 in 10.0 mi WSW 9.2 mph - N/A   Overcast
6:16 AM 63.1 °F 63.1 °F 100% 29.92 in 10.0 mi WSW 5.8 mph - N/A   Overcast
6:36 AM 63.0 °F 63.1 °F 100% 29.92 in 10.0 mi WSW 8.1 mph - N/A   Overcast
6:55 AM 63.0 °F 63.1 °F 100% 29.93 in 10.0 mi WSW 8.1 mph - N/A   Overcast
7:16 AM 62.8 °F 63.0 °F 100% 29.94 in 10.0 mi WSW 10.4 mph - N/A   Overcast
7:36 AM 62.8 °F 57.4 °F 82% 29.95 in 10.0 mi West 11.5 mph 16.1 mph N/A   Overcast
7:55 AM 61.3 °F 55.0 °F 80% 29.96 in 10.0 mi WNW 8.1 mph 17.3 mph N/A   Overcast
8:16 AM 61.2 °F 54.5 °F 79% 29.96 in 10.0 mi WNW 8.1 mph - N/A   Overcast
8:36 AM 61.3 °F 53.6 °F 76% 29.97 in 10.0 mi West 11.5 mph - N/A   Scattered Clouds
8:56 AM 61.2 °F 53.8 °F 77% 29.97 in 10.0 mi WNW 8.1 mph - N/A   Mostly Cloudy
9:16 AM 61.5 °F 53.4 °F 75% 29.97 in 10.0 mi WNW 9.2 mph - N/A   Overcast
9:36 AM 61.9 °F 52.5 °F 71% 29.97 in 10.0 mi NW 6.9 mph - N/A   Overcast
9:55 AM 61.0 °F 50.4 °F 68% 29.97 in 10.0 mi WNW 5.8 mph - N/A   Overcast
10:16 AM 61.0 °F 51.1 °F 70% 29.97 in 10.0 mi West 6.9 mph - N/A   Overcast
10:36 AM 61.2 °F 50.7 °F 69% 29.98 in 10.0 mi West 6.9 mph - N/A   Overcast
10:55 AM 61.3 °F 49.8 °F 66% 29.98 in 10.0 mi West 5.8 mph - N/A   Overcast
11:16 AM 61.5 °F 49.6 °F 65% 29.97 in 10.0 mi West 4.6 mph - N/A   Overcast
11:36 AM 61.7 °F 49.8 °F 65% 29.97 in 10.0 mi West 3.5 mph - N/A   Overcast
11:56 AM 61.9 °F 49.1 °F 63% 29.98 in 10.0 mi West 5.8 mph - N/A   Overcast
12:16 PM 62.2 °F 48.9 °F 62% 29.97 in 10.0 mi West 6.9 mph - N/A   Overcast
12:36 PM 62.4 °F 48.9 °F 61% 29.97 in 10.0 mi WSW 5.8 mph - N/A   Overcast
12:55 PM 62.2 °F 48.6 °F 61% 29.97 in 10.0 mi SW 5.8 mph - N/A   Overcast
1:16 PM 63.0 °F 49.1 °F 61% 29.96 in 10.0 mi WSW 5.8 mph - N/A   Overcast
1:36 PM 63.5 °F 48.9 °F 59% 29.95 in 10.0 mi WSW 4.6 mph - N/A   Overcast
1:55 PM 64.4 °F 50.0 °F 59% 29.95 in 10.0 mi Calm Calm - N/A   Overcast
2:16 PM 65.7 °F 49.5 °F 56% 29.94 in 10.0 mi West 3.5 mph - N/A   Mostly Cloudy
2:36 PM 66.4 °F 49.5 °F 54% 29.94 in 10.0 mi SSW 3.5 mph - N/A   Clear
2:55 PM 65.8 °F 49.3 °F 55% 29.93 in 10.0 mi WNW 5.8 mph - N/A   Scattered Clouds
3:16 PM 67.5 °F 47.7 °F 49% 29.94 in 10.0 mi West 9.2 mph - N/A   Mostly Cloudy
3:36 PM 66.9 °F 46.8 °F 48% 29.93 in 10.0 mi West 9.2 mph - N/A   Overcast
3:56 PM 66.6 °F 45.7 °F 47% 29.94 in 10.0 mi West 6.9 mph - N/A   Scattered Clouds
4:16 PM 65.8 °F 46.6 °F 50% 29.93 in 10.0 mi West 8.1 mph - N/A   Clear
4:36 PM 65.1 °F 45.5 °F 49% 29.93 in 10.0 mi NW 5.8 mph - N/A   Clear
4:56 PM 64.8 °F 44.2 °F 47% 29.93 in 10.0 mi NW 8.1 mph - N/A   Clear
5:16 PM 64.4 °F 42.8 °F 45% 29.93 in 10.0 mi NW 6.9 mph - N/A   Clear
5:36 PM 65.1 °F 42.4 °F 44% 29.93 in 10.0 mi NW 5.8 mph - N/A   Clear
5:56 PM 63.3 °F 39.6 °F 42% 29.94 in 10.0 mi NW 4.6 mph - N/A   Clear
6:16 PM 63.3 °F 37.6 °F 39% 29.95 in 10.0 mi NW 5.8 mph - N/A   Clear
6:36 PM 63.1 °F 38.3 °F 40% 29.95 in 10.0 mi NW 3.5 mph - N/A   Clear
6:56 PM 62.8 °F 37.2 °F 39% 29.95 in 10.0 mi Calm Calm - N/A   Clear
7:16 PM 62.6 °F 36.0 °F 37% 29.94 in 10.0 mi Calm Calm - N/A   Clear
7:36 PM 61.9 °F 39.2 °F 43% 29.95 in 10.0 mi Calm Calm - N/A   Clear
7:56 PM 60.3 °F 42.4 °F 52% 29.95 in 10.0 mi Calm Calm - N/A   Clear
8:16 PM 60.1 °F 42.4 °F 52% 29.96 in 10.0 mi Calm Calm - N/A   Clear
8:35 PM 58.8 °F 41.0 °F 52% 29.97 in 10.0 mi Calm Calm - N/A   Clear
8:56 PM 58.1 °F 39.7 °F 50% 29.98 in 10.0 mi Calm Calm - N/A   Clear
9:16 PM 55.8 °F 41.0 °F 58% 29.98 in 10.0 mi Calm Calm - N/A   Clear
9:36 PM 54.9 °F 42.8 °F 64% 29.98 in 10.0 mi Calm Calm - N/A   Clear
9:56 PM 54.9 °F 40.6 °F 59% 29.99 in 10.0 mi SSW 3.5 mph - N/A   Clear
10:16 PM 54.3 °F 41.7 °F 62% 30.00 in 10.0 mi Calm Calm - N/A   Clear
10:36 PM 54.9 °F 39.9 °F 57% 30.00 in 10.0 mi SSW 3.5 mph - N/A   Clear
10:56 PM 53.2 °F 41.9 °F 65% 30.00 in 10.0 mi Calm Calm - N/A   Clear
11:16 PM 52.7 °F 41.7 °F 66% 30.00 in 10.0 mi Calm Calm - N/A   Clear
11:36 PM 49.6 °F 41.9 °F 75% 30.00 in 10.0 mi Calm Calm - N/A   Clear
11:56 PM 50.9 °F 42.1 °F 72% 30.00 in 10.0 mi Calm Calm - N/A   Clear